Flag for U.S.A. Weather past 2 weeks in Marengo, Indiana, U.S.A.

Now
56 °F

Sunny.


Feels Like: 54 °F
Forecast: 41 / 63 °F
Wind: 8 mph from East

Location: Bowling Green-Warren County Regional Airport


UV Index: 7 (High)

Visibility: 10 mi


Pressure: 30.10 "Hg

Humidity: 42%

Dew point: 33 °F

Location of MarengoLocation

Historic Weather in Marengo

°F

Marengo temperature yesterday

Maximum temperature yesterday: 76 °F (at 2:53 PM)
Minimum temperature yesterday: 54 °F (at 11:53 PM)
Average temperature yesterday: 67 °F

Past Weeks' High & Low Weather Summary

 TemperatureHumidityPressure
High81 °F (Apr 13, 2:53 PM)100% (Apr 12, 7:53 AM)30.38 "Hg (Apr 12, 7:53 AM)
Low28 °F (Apr 16, 5:53 AM)24% (Apr 20, 4:53 PM)29.69 "Hg (Apr 14, 4:53 PM)
Average59 °F56%30.06 "Hg
* Reported Apr 8 9:53 AM — Apr 23 9:53 AM, Marengo, Weather by CustomWeather, © 2014

Note: Actual official high and low records may vary slightly from our data, if they occured in-between our weather recording intervals... More about our weather records

Advertising

Historic Weather Conditions — Data for Previous 24 hours

 ConditionsComfort  
Time TempWeatherWind HumidityBarometerVisibility
9:53 AM
Apr 23
54 °FSunny.9 mph47%30.11 "Hg10 mi
8:53 AM51 °FSunny.8 mph54%30.09 "Hg10 mi
7:53 AM46 °FClear.No wind61%30.08 "Hg10 mi
6:53 AM45 °FClear.No wind58%30.05 "Hg10 mi
5:53 AM46 °FClear.3 mph58%30.01 "Hg10 mi
4:53 AM47 °FClear.7 mph61%30.00 "Hg10 mi
3:53 AM47 °FClear.7 mph64%29.98 "Hg10 mi
2:53 AM49 °FClear.No wind66%29.96 "Hg10 mi
1:53 AM50 °FClear.No wind68%29.95 "Hg10 mi
12:53 AM53 °FClear.No wind59%29.95 "Hg10 mi
11:53 PM
Apr 22
54 °FClear.No wind55%29.95 "Hg10 mi
10:53 PM60 °FClear.3 mph42%29.94 "Hg10 mi
9:53 PM62 °FClear.6 mph39%29.92 "Hg10 mi
8:53 PM65 °FSunny.8 mph39%29.89 "Hg10 mi
7:53 PM69 °FSunny.10 mph35%29.87 "Hg10 mi
6:53 PM72 °FSunny.9 mph31%29.85 "Hg10 mi
5:53 PM74 °FSunny.12 mph32%29.84 "Hg10 mi
4:53 PM75 °FPassing clouds.10 mph32%29.83 "Hg10 mi
3:53 PM75 °FSunny.14 mph40%29.84 "Hg10 mi
2:53 PM76 °FPassing clouds.7 mph47%29.85 "Hg10 mi
1:53 PM74 °FPassing clouds.10 mph52%29.85 "Hg10 mi
12:53 PM74 °FScattered clouds.7 mph57%29.86 "Hg10 mi
11:53 AM71 °FBroken clouds.6 mph66%29.88 "Hg9 mi
Weather by CustomWeather, © 2014

See weather overview